Weather History for PAFB - June, 2013

Change the Weather History Date:

Friday, June 28, 2013

  Actual Average Record
Temperature  
Mean Temperature 72 °F -  
Max Temperature 80 °F 71 °F 84 °F (2005)
Min Temperature 64 °F 54 °F 48 °F (2014)
Cooling Degree Days 7    
Growing Degree Days 22 (Base 50)    
Moisture  
Dew Point 54 °F    
Average Humidity 56    
Maximum Humidity 73    
Minimum Humidity 34    
Precipitation  
Precipitation 0.00 in - - ()
Sea Level Pressure  
Sea Level Pressure 30.01 in    
Wind  
Wind Speed 5 mph (SW)    
Max Wind Speed 14 mph    
Max Gust Speed 22 mph    
Visibility 5 miles    
Events      
Averages and records for this station are not official NWS values.
T = Trace of Precipitation, MM = Missing Value Source: NWS Daily Summary

Daily Weather History Graph

Daily Weather History Graph

Search for Another Location

Airport or City:

Trip Planner

Search our weather history database for the weather conditions in past years. The results will help you decide how hot, cold, wet, or windy it might be!

Date:

Astronomy

Jun. 28, 2013 Rise Set
Actual Time 3:05 AM AKDT 12:41 AM AKDT
Civil Twilight Sun does not rise Sun does not rise
Nautical Twilight Sun does not rise Sun does not rise
Astronomical Twilight Sun does not rise Sun does not rise
Moon 12:37 AM AKDT (6/28) 12:42 PM AKDT (6/28)
Length of Visible Light 24h 00m
Length of Day
21h 36m
Waning Gibbous, 65% of the Moon is Illuminated
Jun 28
Waning Gibbous
Jun 29
Last Quarter
Jul 7
New
Jul 15
First Quarter
Jul 22
Full

Hourly Weather History & Observations

Time (AKDT) Temp. Dew Point Humidity Pressure Visibility Wind Dir Wind Speed Gust Speed Precip Events Conditions
12:56 AM 70.0 °F 51.1 °F 51% 29.98 in 10.0 mi West 6.9 mph - N/A   Mostly Cloudy
1:56 AM 69.1 °F 53.1 °F 57% 30.00 in 10.0 mi West 4.6 mph - N/A   Mostly Cloudy
2:56 AM 66.9 °F 53.1 °F 61% 30.00 in 10.0 mi West 3.5 mph - N/A   Scattered Clouds
3:56 AM 66.0 °F 55.0 °F 68% 30.01 in 10.0 mi SSE 3.5 mph - N/A   Overcast
4:56 AM 64.9 °F 53.1 °F 65% 30.01 in 4.0 mi WSW 4.6 mph - N/A   Haze
5:08 AM 64.4 °F 53.6 °F 68% 30.01 in 2.5 mi West 3.5 mph - N/A   Haze
5:18 AM 64.4 °F 53.6 °F 68% 30.01 in - West 3.5 mph - N/A   Haze
5:56 AM 66.0 °F 54.0 °F 65% 30.01 in 3.0 mi West 3.5 mph - N/A   Haze
6:10 AM 66.2 °F 53.6 °F 64% 30.02 in 3.0 mi Calm Calm - N/A   Smoke
6:44 AM 64.4 °F 55.4 °F 73% 30.03 in 2.0 mi East 3.5 mph - N/A   Smoke
6:55 AM 64.4 °F 55.4 °F 73% 30.03 in 2.0 mi ESE 4.6 mph - N/A   Smoke
7:15 AM 64.4 °F 55.4 °F 73% 30.03 in 2.0 mi ENE 3.5 mph - N/A   Smoke
7:28 AM 64.4 °F 55.4 °F 73% 30.03 in 3.0 mi ENE 3.5 mph - N/A   Smoke
7:55 AM 64.4 °F 55.4 °F 73% 30.03 in 3.0 mi ENE 3.5 mph - N/A   Smoke
8:13 AM 66.2 °F 55.4 °F 68% 30.03 in 2.5 mi Calm Calm - N/A   Smoke
8:55 AM 69.8 °F 53.6 °F 56% 30.03 in 2.5 mi Calm Calm - N/A   Smoke
9:16 AM 69.8 °F 55.4 °F 60% 30.03 in 3.0 mi West 3.5 mph - N/A   Smoke
9:55 AM 71.6 °F 55.4 °F 57% 30.03 in 4.0 mi Calm Calm - N/A   Smoke
10:55 AM 75.2 °F 51.8 °F 44% 30.02 in 6.0 mi Calm Calm - N/A   Smoke
11:55 AM 75.2 °F 51.8 °F 44% 30.02 in 6.0 mi WSW 5.8 mph - N/A   Smoke
12:55 PM 77.0 °F 50.0 °F 39% 30.02 in 6.0 mi SSW 9.2 mph - N/A   Smoke
1:55 PM 78.8 °F 48.2 °F 34% 30.02 in 7.0 mi SSW 8.1 mph 21.9 mph N/A   Mostly Cloudy
2:55 PM 80.6 °F 50.0 °F 34% 30.01 in 7.0 mi South 11.5 mph - N/A   Mostly Cloudy
3:55 PM 80.6 °F 50.0 °F 34% 30.00 in 7.0 mi SSW 11.5 mph 17.3 mph N/A   Mostly Cloudy
4:55 PM 78.8 °F 51.8 °F 39% 30.00 in 7.0 mi SW 13.8 mph - N/A   Mostly Cloudy
5:55 PM 78.8 °F 51.8 °F 39% 29.99 in 7.0 mi SW 8.1 mph - N/A   Mostly Cloudy
6:55 PM 77.0 °F 51.8 °F 41% 29.98 in 7.0 mi WSW 13.8 mph - N/A   Mostly Cloudy
7:55 PM 75.2 °F 57.2 °F 53% 29.97 in 4.0 mi SW 12.7 mph - N/A   Smoke
8:55 PM 73.4 °F 57.2 °F 57% 29.98 in 5.0 mi SW 9.2 mph - N/A   Smoke
9:55 PM 73.4 °F 57.2 °F 57% 29.98 in 6.0 mi SW 8.1 mph - N/A   Smoke
10:56 PM 71.1 °F 57.9 °F 63% 29.99 in 7.0 mi South 5.8 mph - N/A   Partly Cloudy
11:56 PM 71.1 °F 55.0 °F 57% 29.99 in 5.0 mi WSW 6.9 mph - N/A   Haze